Location: Lucerne Valley
(34.4439°N, 116.9669°E)
Time: 09:29:43
(UTC-07:00)

Vanguard 3 - All Passes

Search period start: 21 June 2018 00:00
Search period end: 01 July 2018 00:00
Orbit: 508 x 3264 km, 33.3° (Epoch: 21 June)

Date Brightness Start Highest point End Pass type
(mag) Time Alt. Az. Time Alt. Az. Time Alt. Az.
21 Jun - 10:55:06 10° SW 10:59:08 34° SSE 11:05:13 10° E visible
21 Jun - 13:04:52 10° W 13:10:42 81° S 13:21:22 10° E visible
21 Jun - 15:15:43 10° W 15:23:58 76° S 15:39:01 10° ESE daylight
21 Jun - 17:27:34 10° W 17:38:25 48° SSW 17:55:23 10° SE daylight
21 Jun - 19:43:01 10° W 19:53:35 22° SW 20:06:25 10° S daylight
22 Jun - 09:43:44 10° S 09:46:08 15° SE 09:48:57 10° ESE visible
22 Jun - 11:52:03 10° WSW 11:56:47 64° SSE 12:04:50 10° E visible
22 Jun - 14:02:32 10° W 14:09:12 83° S 14:21:35 10° E daylight
22 Jun - 16:13:41 10° W 16:22:54 60° SSW 16:38:50 10° SE daylight
22 Jun - 18:26:48 10° W 18:37:40 32° SSW 18:52:45 10° SSE daylight
23 Jun - 10:39:32 10° SW 10:43:22 38° SSE 10:49:00 10° E visible
23 Jun - 12:49:32 10° W 12:54:55 82° S 13:04:36 10° E visible
23 Jun - 15:00:18 10° W 15:07:51 71° SSW 15:21:44 10° ESE daylight
23 Jun - 17:12:06 10° W 17:21:57 42° SSW 17:37:29 10° SE daylight
23 Jun - 19:28:24 10° WSW 19:36:57 17° SW 19:47:14 10° S daylight
24 Jun - 09:27:41 10° S 09:30:19 18° SE 09:33:23 10° ESE visible
24 Jun - 11:36:41 10° WSW 11:41:07 69° SSE 11:48:22 10° E visible
24 Jun - 13:47:11 10° W 13:53:19 80° S 14:04:37 10° ESE daylight
24 Jun - 15:58:16 10° W 16:06:39 53° SSW 16:21:14 10° SE daylight
24 Jun - 18:11:37 10° W 18:21:09 26° SSW 18:34:17 10° SSE daylight
25 Jun - 10:24:00 10° SW 10:27:42 43° SSE 10:32:54 10° E visible
25 Jun - 12:34:14 10° W 12:39:13 83° S 12:47:57 10° E visible
25 Jun - 14:44:55 10° W 14:51:50 64° SSW 15:04:29 10° ESE daylight
25 Jun - 16:56:47 10° W 17:05:38 35° SSW 17:19:26 10° SSE daylight
25 Jun - 19:14:50 10° WSW 19:20:29 13° SW 19:26:57 10° SSW daylight
26 Jun - 09:11:44 10° SSW 09:14:35 21° SSE 09:17:49 10° E visible
26 Jun - 11:21:20 10° WSW 11:25:29 73° S 11:32:02 10° E visible
26 Jun - 13:31:51 10° W 13:37:30 75° S 13:47:44 10° ESE visible
26 Jun - 15:42:55 10° W 15:50:32 45° SSW 16:03:35 10° SE daylight
26 Jun - 17:56:50 10° WSW 18:04:48 20° SSW 18:15:27 10° S daylight
27 Jun - 10:08:29 10° WSW 10:12:06 48° SSE 10:16:54 10° E visible
27 Jun - 12:18:55 10° W 12:23:33 81° S 12:31:25 10° E visible
27 Jun - 14:29:35 10° W 14:35:55 56° SSW 14:47:15 10° ESE daylight
27 Jun - 16:41:40 10° W 16:49:27 28° SSW 17:01:13 10° SSE daylight
28 Jun - 08:55:50 10° SSW 08:58:55 25° SSE 09:02:16 10° E night (unlit)
28 Jun - 11:05:58 10° W 11:09:56 76° S 11:15:49 10° E visible
28 Jun - 13:16:33 10° W 13:21:45 68° S 13:30:55 10° ESE visible
28 Jun - 15:27:41 10° W 15:34:32 37° SSW 15:45:53 10° SE daylight
28 Jun - 17:42:40 10° WSW 17:48:36 15° SSW 17:56:01 10° S daylight
29 Jun - 07:43:51 10° S 07:45:40 13° SSE 07:47:24 10° SE night (unlit)
29 Jun - 09:52:58 10° WSW 09:56:33 55° SSE 10:00:59 10° E visible
29 Jun - 12:03:36 10° W 12:07:57 78° S 12:14:58 10° E visible
29 Jun - 14:14:19 10° W 14:20:04 47° SSW 14:30:03 10° SE daylight
29 Jun - 16:26:50 10° WSW 16:33:24 22° SSW 16:42:48 10° SSE daylight
30 Jun - 08:39:56 10° SW 08:43:19 31° SSE 08:46:45 10° E night (unlit)
30 Jun - 10:50:36 10° W 10:54:24 78° S 10:59:42 10° E visible
30 Jun - 13:01:16 10° W 13:06:04 59° SSW 13:14:11 10° ESE visible
30 Jun - 15:12:37 10° W 15:18:38 29° SSW 15:28:06 10° SSE daylight
30 Jun - 17:30:58 10° SW 17:32:32 10° SSW 17:34:11 10° SSW daylight
